Regional Weather Roundup
Issued by NWS Little Rock, AR

Home | Current Version | Previous Version | Graphics & Text | Print | Product List | Glossary On
Versions: 1 2 3 4 5 6 7 8 9 10 11 12 13 14 15 16 17 18 19 20 21 22 23 24 25 26 27 28 29 30 31 32 33 34 35 36 37 38 39 40 41 42 43 44 45 46 47 48 49 50
000
ASUS44 KLZK 220205
RWRLZK

WEATHER ROUNDUP FOR ARKANSAS
NATIONAL WEATHER SERVICE LITTLE ROCK AR
900 PM CDT THU AUG 21 2014

NOTE: "FAIR" INDICATES FEW OR NO CLOUDS BELOW 12,000 FEET WITH NO
SIGNIFICANT WEATHER AND/OR OBSTRUCTIONS TO VISIBILITY.

ARZ001-003-010-029-220300-
NORTHWEST ARKANSAS

CITY           SKY/WX    TMP DP  RH WIND       PRES   REMARKS
FAYETTEVILLE   CLEAR     80  71  74 S8        30.03R
FORT SMITH     CLEAR     85  73  67 SE5       29.99R HX  91
HARRISON       CLEAR     78  70  76 S6        30.04R
BENTONVILLE    CLEAR     81  70  69 S7        30.03R
ROGERS         CLEAR     82  69  64 S9        30.03R HX  85
SILOAM SPGS    CLEAR     81  66  61 S9        30.02R
HIGHFILL       CLEAR     79  69  71 S8        30.02R
SPRINGDALE     CLEAR     82  70  65 S12       30.04S HX  86
$$

ARZ004-005-016-220300-
NORTH CENTRAL ARKANSAS

CITY           SKY/WX    TMP DP  RH WIND       PRES   REMARKS
BATESVILLE     PTCLDY    84  72  65 S10G18    30.02R HX  89
FLIPPIN        CLEAR     84  64  51 SW7       30.01R HX  86
MTN HOME       PTCLDY    83  67  58 SW6       30.01R HX  85
$$

ARZ040-041-220300-
WEST CENTRAL ARKANSAS

CITY           SKY/WX    TMP DP  RH WIND       PRES   REMARKS
MENA           CLEAR     84  75  74 CALM      30.05S HX  92
MOUNT IDA      CLEAR     83  73  72 SE5       30.02F HX  89
$$

ARZ009-017-025-026-028-220300-
NORTHEAST ARKANSAS

CITY           SKY/WX    TMP DP  RH WIND       PRES   REMARKS
CORNING        FAIR      82  73  74 SW15G21   30.00R HX  88
JONESBORO      PTCLDY    84  73  69 S9        30.02R HX  90
NEWPORT        CLEAR     82  74  77 S12       30.03R HX  88
WALNUT RIDGE   PTCLDY    82  64  54 S15       30.00R
BLYTHEVILLE    PTCLDY    81  76  84 S7        30.02R HX  87
$$

ARZ022-023-033-042-044-220300-
CENTRAL ARKANSAS

CITY           SKY/WX    TMP DP  RH WIND       PRES   REMARKS
LITTLE ROCK    MOCLDY    83  72  69 S7        30.03S HX  88
N LITTLE ROCK  MOCLDY    84  75  73 S7        30.03S HX  91
JACKSONVILLE   CLEAR     83  74  75 S3        30.04R HX  90
SEARCY           N/A     82  75  79 CALM        N/A  HX  88
HOT SPRINGS    CLEAR     84  73  69 S5        30.05S HX  90
RUSSELLVILLE   CLEAR     83  72  69 CALM      30.02R HX  88
CLINTON        FAIR      86  73  66 S6        30.04R HX  93
$$

ARZ036-220300-
EAST ARKANSAS

CITY           SKY/WX    TMP DP  RH WIND       PRES   REMARKS
WEST MEMPHIS   CLEAR     83  76  79 S7        30.03R HX  91
$$

ARZ050-053-066-070-073-220300-
SOUTHWEST ARKANSAS

CITY           SKY/WX    TMP DP  RH WIND       PRES   REMARKS
ARKADELPHIA    FAIR      82  79  91 CALM      30.03F HX  92
CAMDEN         LGT RAIN  81  73  78 SE5       30.03S HX  85
TEXARKANA      CLEAR     85  72  65 S5        30.03R HX  91
EL DORADO      CLEAR     82  76  81 S7        30.05S HX  89
DE QUEEN       MOCLDY    83  77  82 SE5       29.99S HX  92
$$

ARZ056-057-069-220300-
SOUTHEAST ARKANSAS

CITY           SKY/WX    TMP DP  RH WIND       PRES   REMARKS
PINE BLUFF     CLEAR     80  75  84 S5        30.04F HX  85
STUTTGART      CLEAR     84  73  70 S6        30.05S HX  91
MONTICELLO     CLEAR     83  76  79 CALM      30.05F HX  91

$$





USA.gov is the U.S. government's official web portal to all federal, state and local government web resources and services.